Location: Anare
(10.6236°N, 66.6506°W)
Time: 16:36:21
(UTC+00:00)

Delta 7925 Rocket - Pass Details

Date: 18 April 2024
Orbit: 645 x 1644 km, 26.3° (Epoch: 18 May)

Event Time Altitude Azimuth Distance (km) Brightness Sun altitude
Rises 23:27:07 0° 293° (WNW) 2,987 8.5 -12.6°
Reaches altitude 10° 23:29:19 10° 292° (WNW) 2,129 7.3 -13.2°
Maximum altitude 23:34:15 78° 206° (SSW) 789 3.6 -14.3°
Enters shadow 23:38:14 21° 122° (ESE) 1,834 4.9 -15.3°
